Tracking 25701 objects as of 4-Jul-2022
HD Live streaming from Space Station
objects crossing your sky now

STARLINK-3567

Track STARLINK-3567 now!
10-day predictions
STARLINK-3567 is classified as:


NORAD ID: 51871
Int'l Code: 2022-022V
Perigee: 545.6 km
Apogee: 548.2 km
Inclination: 53.2 °
Period: 95.4 minutes
Semi major axis: 6917 km
RCS: Unknown
Launch date: March 3, 2022
Source: United States (US)
Launch site: AIR FORCE EASTERN TEST RANGE (AFETR)
aabbcc
Your satellite tracking list
Your tracking list is empty




NASA's NSSDC Master Catalog

Two Line Element Set (TLE):
1 51871U 22022V   22184.91667824 -.00048286  00000-0 -30364-2 0  9998
2 51871  53.2186 286.0400 0001852  36.4658 191.8247 15.08837384  1300
Source of the keplerian elements: AFSPC